Overview Statistics Trail Chart Weather Telemetry Raw packets
 

This is the latest recevied weather packets stored in our database for station/object HB9FHL-13. If no packets are shown the sender has not sent any weather packets the latest 10 day(s).

<< 79 80 81 82 83 84 85 >>
Time Temp. Humidity Pressure Rain* Wind** Luminosity Snow
1788174110 19.44° C - 1017.8 hPa 3.3 mm - - -
1788173809 19.44° C - 1022 hPa 3.3 mm - - -
1788173597 19.44° C - 1022.7 hPa 3.3 mm - - -
1788173509 19.44° C - 1022.7 hPa 3.3 mm - - -
1788173324 18.89° C - 1024.3 hPa 3.3 mm - - -
1788173208 18.89° C - 1024.3 hPa 3.3 mm - - -
1788172908 18.33° C - 1022.2 hPa 3.3 mm - - -
1788172607 18.89° C - 1021.3 hPa 3.3 mm - - -
1788172307 18.89° C - 1020.5 hPa 3.3 mm - - -
1788172006 18.33° C - 1019.9 hPa 3.3 mm - - -
1788171756 18.33° C - 1023.6 hPa 3.3 mm - - -
1788171705 18.33° C - 1023.6 hPa 3.3 mm - - -
1788171442 18.89° C - 1023.4 hPa 3.3 mm - - -
1788171405 18.89° C - 1023.4 hPa 3.3 mm - - -
1788171104 18.89° C - 1020.6 hPa 3.3 mm - - -
1788170804 18.89° C - 1024.5 hPa 3.3 mm - - -
1788170504 18.89° C - 1025.6 hPa 3.3 mm - - -
1788170203 18.89° C - 1021.4 hPa 3.3 mm - - -
1788169902 17.78° C - 1022.7 hPa 3.3 mm - - -
1788169602 18.33° C - 1021.6 hPa 3.3 mm - - -
1788169302 17.78° C - 1022.3 hPa 3.3 mm - - -
1788169001 17.78° C - 1020.7 hPa 3.3 mm - - -
1788168766 17.78° C - 1023.5 hPa 3.3 mm - - -
1788168701 17.78° C - 1023.5 hPa 3.3 mm - - -
1788168567 17.22° C - 1023.2 hPa 3.3 mm - - -

* Rain since midnight (hover to see other rain measurements)
** Current wind speed in m/s (hover to see current wind gust speed)